owner,sensor,date,latitude,longitude,vertical_datum,sea_water_temperature,qcFlag 
COMPS,ioos:station:USF.COMPS:FHP:1,2015-09-06T08:36:00Z,28.1530,-82.8010,-1.0,44.67,2 
COMPS,ioos:station:USF.COMPS:FHP:1,2015-09-08T00:24:00Z,28.1530,-82.8010,-1.0,44.73,2 
COMPS,ioos:station:USF.COMPS:FHP:1,2015-09-08T00:30:00Z,28.1530,-82.8010,-1.0,43.06,2 
COMPS,ioos:station:USF.COMPS:FHP:1,2015-09-08T00:36:00Z,28.1530,-82.8010,-1.0,43.97,2 
COMPS,ioos:station:USF.COMPS:FHP:1,2015-09-09T01:30:00Z,28.1530,-82.8010,-1.0,44.7,2 
COMPS,ioos:station:USF.COMPS:FHP:1,2015-09-09T01:36:00Z,28.1530,-82.8010,-1.0,44.76,2 
COMPS,ioos:station:USF.COMPS:FHP:1,2015-09-09T01:42:00Z,28.1530,-82.8010,-1.0,41.95,2 
COMPS,ioos:station:USF.COMPS:FHP:1,2015-09-09T01:48:00Z,28.1530,-82.8010,-1.0,42.49,2 
COMPS,ioos:station:USF.COMPS:FHP:1,2015-09-09T01:54:00Z,28.1530,-82.8010,-1.0,41.62,2 
COMPS,ioos:station:USF.COMPS:FHP:1,2015-09-13T15:12:00Z,28.1530,-82.8010,-1.0,44.39,2 
COMPS,ioos:station:USF.COMPS:FHP:1,2015-09-13T15:18:00Z,28.1530,-82.8010,-1.0,43.35,2 
COMPS,ioos:station:USF.COMPS:FHP:1,2015-09-13T15:24:00Z,28.1530,-82.8010,-1.0,43.44,2 
COMPS,ioos:station:USF.COMPS:FHP:1,2015-09-13T15:30:00Z,28.1530,-82.8010,-1.0,43.68,2 
COMPS,ioos:station:USF.COMPS:FHP:1,2015-09-13T15:36:00Z,28.1530,-82.8010,-1.0,43.66,2 
COMPS,ioos:station:USF.COMPS:FHP:1,2015-09-13T15:42:00Z,28.1530,-82.8010,-1.0,43.79,2 
COMPS,ioos:station:USF.COMPS:FHP:1,2015-09-13T15:48:00Z,28.1530,-82.8010,-1.0,43.79,2 
COMPS,ioos:station:USF.COMPS:FHP:1,2015-09-13T15:54:00Z,28.1530,-82.8010,-1.0,44.98,2 
COMPS,ioos:station:USF.COMPS:FHP:1,2015-09-14T04:06:00Z,28.1530,-82.8010,-1.0,44.24,2 
COMPS,ioos:station:USF.COMPS:FHP:1,2015-09-14T04:30:00Z,28.1530,-82.8010,-1.0,44.77,2 
COMPS,ioos:station:USF.COMPS:FHP:1,2015-09-14T04:36:00Z,28.1530,-82.8010,-1.0,44.78,2 
COMPS,ioos:station:USF.COMPS:FHP:1,2015-09-14T04:42:00Z,28.1530,-82.8010,-1.0,44.79,2 
COMPS,ioos:station:USF.COMPS:FHP:1,2015-09-14T04:54:00Z,28.1530,-82.8010,-1.0,44.98,2 
COMPS,ioos:station:USF.COMPS:FHP:1,2015-09-14T05:00:00Z,28.1530,-82.8010,-1.0,44.96,2 
COMPS,ioos:station:USF.COMPS:FHP:1,2015-09-14T05:06:00Z,28.1530,-82.8010,-1.0,44.82,2 
COMPS,ioos:station:USF.COMPS:FHP:1,2015-09-14T05:12:00Z,28.1530,-82.8010,-1.0,44.88,2 
COMPS,ioos:station:USF.COMPS:FHP:1,2015-09-14T05:18:00Z,28.1530,-82.8010,-1.0,44.76,2 
COMPS,ioos:station:USF.COMPS:FHP:1,2015-09-14T05:24:00Z,28.1530,-82.8010,-1.0,44.79,2 
COMPS,ioos:station:USF.COMPS:FHP:1,2015-09-14T05:30:00Z,28.1530,-82.8010,-1.0,44.92,2 
COMPS,ioos:station:USF.COMPS:FHP:1,2015-09-14T05:36:00Z,28.1530,-82.8010,-1.0,44.83,2 
COMPS,ioos:station:USF.COMPS:FHP:1,2015-09-14T05:42:00Z,28.1530,-82.8010,-1.0,44.76,2 
COMPS,ioos:station:USF.COMPS:FHP:1,2015-09-14T05:48:00Z,28.1530,-82.8010,-1.0,44.74,2 
COMPS,ioos:station:USF.COMPS:FHP:1,2015-09-14T05:54:00Z,28.1530,-82.8010,-1.0,44.73,2 
COMPS,ioos:station:USF.COMPS:FHP:1,2015-09-14T06:00:00Z,28.1530,-82.8010,-1.0,44.71,2 
COMPS,ioos:station:USF.COMPS:FHP:1,2015-09-14T06:06:00Z,28.1530,-82.8010,-1.0,44.77,2 
COMPS,ioos:station:USF.COMPS:FHP:1,2015-09-14T06:12:00Z,28.1530,-82.8010,-1.0,44.86,2 
COMPS,ioos:station:USF.COMPS:FHP:1,2015-09-14T06:18:00Z,28.1530,-82.8010,-1.0,44.58,2 
COMPS,ioos:station:USF.COMPS:FHP:1,2015-09-14T06:24:00Z,28.1530,-82.8010,-1.0,44.72,2 
COMPS,ioos:station:USF.COMPS:FHP:1,2015-09-14T06:42:00Z,28.1530,-82.8010,-1.0,44.88,2 
COMPS,ioos:station:USF.COMPS:FHP:1,2015-09-14T06:48:00Z,28.1530,-82.8010,-1.0,44.88,2 
COMPS,ioos:station:USF.COMPS:FHP:1,2015-09-14T06:54:00Z,28.1530,-82.8010,-1.0,44.75,2 
COMPS,ioos:station:USF.COMPS:FHP:1,2015-09-15T16:06:00Z,28.1530,-82.8010,-1.0,42.78,2 
COMPS,ioos:station:USF.COMPS:FHP:1,2015-09-15T16:12:00Z,28.1530,-82.8010,-1.0,41.05,2 
COMPS,ioos:station:USF.COMPS:FHP:1,2015-09-15T16:18:00Z,28.1530,-82.8010,-1.0,40.4,2 
COMPS,ioos:station:USF.COMPS:FHP:1,2015-09-15T16:24:00Z,28.1530,-82.8010,-1.0,38.64,2 
COMPS,ioos:station:USF.COMPS:FHP:1,2015-09-15T16:30:00Z,28.1530,-82.8010,-1.0,39.72,2 
COMPS,ioos:station:USF.COMPS:FHP:1,2015-09-15T16:36:00Z,28.1530,-82.8010,-1.0,38.35,2 
COMPS,ioos:station:USF.COMPS:FHP:1,2015-09-15T16:42:00Z,28.1530,-82.8010,-1.0,38.51,2 
COMPS,ioos:station:USF.COMPS:FHP:1,2015-09-15T16:48:00Z,28.1530,-82.8010,-1.0,39.99,2 
COMPS,ioos:station:USF.COMPS:FHP:1,2015-09-15T16:54:00Z,28.1530,-82.8010,-1.0,39.43,2 
COMPS,ioos:station:USF.COMPS:FHP:1,2015-09-15T17:00:00Z,28.1530,-82.8010,-1.0,39.07,2 
COMPS,ioos:station:USF.COMPS:FHP:1,2015-09-15T17:06:00Z,28.1530,-82.8010,-1.0,40.68,2 
COMPS,ioos:station:USF.COMPS:FHP:1,2015-09-15T17:12:00Z,28.1530,-82.8010,-1.0,40.24,2 
COMPS,ioos:station:USF.COMPS:FHP:1,2015-09-15T17:18:00Z,28.1530,-82.8010,-1.0,39.62,2 
COMPS,ioos:station:USF.COMPS:FHP:1,2015-09-15T17:24:00Z,28.1530,-82.8010,-1.0,40.34,2 
COMPS,ioos:station:USF.COMPS:FHP:1,2015-09-15T17:30:00Z,28.1530,-82.8010,-1.0,40.22,2 
COMPS,ioos:station:USF.COMPS:FHP:1,2015-09-15T17:36:00Z,28.1530,-82.8010,-1.0,39.75,2 
COMPS,ioos:station:USF.COMPS:FHP:1,2015-09-15T17:42:00Z,28.1530,-82.8010,-1.0,40.51,2 
COMPS,ioos:station:USF.COMPS:FHP:1,2015-09-15T17:48:00Z,28.1530,-82.8010,-1.0,41.33,2 
COMPS,ioos:station:USF.COMPS:FHP:1,2015-09-15T17:54:00Z,28.1530,-82.8010,-1.0,41.15,2 
COMPS,ioos:station:USF.COMPS:FHP:1,2015-09-15T18:00:00Z,28.1530,-82.8010,-1.0,41.86,2 
COMPS,ioos:station:USF.COMPS:FHP:1,2015-09-15T18:06:00Z,28.1530,-82.8010,-1.0,41.0,2 
COMPS,ioos:station:USF.COMPS:FHP:1,2015-09-15T18:12:00Z,28.1530,-82.8010,-1.0,40.59,2 
COMPS,ioos:station:USF.COMPS:FHP:1,2015-09-15T18:18:00Z,28.1530,-82.8010,-1.0,40.58,2 
COMPS,ioos:station:USF.COMPS:FHP:1,2015-09-15T18:24:00Z,28.1530,-82.8010,-1.0,40.5,2 
COMPS,ioos:station:USF.COMPS:FHP:1,2015-09-15T18:30:00Z,28.1530,-82.8010,-1.0,41.98,2 
COMPS,ioos:station:USF.COMPS:FHP:1,2015-09-15T18:36:00Z,28.1530,-82.8010,-1.0,41.68,2 
COMPS,ioos:station:USF.COMPS:FHP:1,2015-09-15T18:42:00Z,28.1530,-82.8010,-1.0,42.39,2 
COMPS,ioos:station:USF.COMPS:FHP:1,2015-09-15T18:48:00Z,28.1530,-82.8010,-1.0,41.34,2 
COMPS,ioos:station:USF.COMPS:FHP:1,2015-09-15T18:54:00Z,28.1530,-82.8010,-1.0,40.3,2 
COMPS,ioos:station:USF.COMPS:FHP:1,2015-09-15T19:00:00Z,28.1530,-82.8010,-1.0,40.12,2 
COMPS,ioos:station:USF.COMPS:FHP:1,2015-09-15T19:06:00Z,28.1530,-82.8010,-1.0,41.84,2 
COMPS,ioos:station:USF.COMPS:FHP:1,2015-09-15T19:12:00Z,28.1530,-82.8010,-1.0,41.19,2 
COMPS,ioos:station:USF.COMPS:FHP:1,2015-09-15T19:18:00Z,28.1530,-82.8010,-1.0,41.94,2 
COMPS,ioos:station:USF.COMPS:FHP:1,2015-09-15T19:24:00Z,28.1530,-82.8010,-1.0,42.34,2 
COMPS,ioos:station:USF.COMPS:FHP:1,2015-09-16T03:48:00Z,28.1530,-82.8010,-1.0,43.52,2 
COMPS,ioos:station:USF.COMPS:FHP:1,2015-09-16T03:54:00Z,28.1530,-82.8010,-1.0,39.82,2 
COMPS,ioos:station:USF.COMPS:FHP:1,2015-09-16T04:00:00Z,28.1530,-82.8010,-1.0,38.31,2 
COMPS,ioos:station:USF.COMPS:FHP:1,2015-09-16T04:06:00Z,28.1530,-82.8010,-1.0,37.61,2 
COMPS,ioos:station:USF.COMPS:FHP:1,2015-09-16T04:12:00Z,28.1530,-82.8010,-1.0,37.18,2 
COMPS,ioos:station:USF.COMPS:FHP:1,2015-09-16T04:18:00Z,28.1530,-82.8010,-1.0,36.27,2 
COMPS,ioos:station:USF.COMPS:FHP:1,2015-09-16T04:24:00Z,28.1530,-82.8010,-1.0,37.16,2 
COMPS,ioos:station:USF.COMPS:FHP:1,2015-09-16T04:30:00Z,28.1530,-82.8010,-1.0,37.02,2 
COMPS,ioos:station:USF.COMPS:FHP:1,2015-09-16T04:36:00Z,28.1530,-82.8010,-1.0,37.25,2 
COMPS,ioos:station:USF.COMPS:FHP:1,2015-09-16T04:42:00Z,28.1530,-82.8010,-1.0,38.13,2 
COMPS,ioos:station:USF.COMPS:FHP:1,2015-09-16T04:48:00Z,28.1530,-82.8010,-1.0,37.98,2 
COMPS,ioos:station:USF.COMPS:FHP:1,2015-09-16T04:54:00Z,28.1530,-82.8010,-1.0,37.52,2 
COMPS,ioos:station:USF.COMPS:FHP:1,2015-09-16T05:00:00Z,28.1530,-82.8010,-1.0,37.86,2 
COMPS,ioos:station:USF.COMPS:FHP:1,2015-09-16T05:06:00Z,28.1530,-82.8010,-1.0,37.41,2 
COMPS,ioos:station:USF.COMPS:FHP:1,2015-09-16T05:12:00Z,28.1530,-82.8010,-1.0,37.82,2 
COMPS,ioos:station:USF.COMPS:FHP:1,2015-09-16T05:18:00Z,28.1530,-82.8010,-1.0,38.28,2 
COMPS,ioos:station:USF.COMPS:FHP:1,2015-09-16T05:24:00Z,28.1530,-82.8010,-1.0,39.07,2 
COMPS,ioos:station:USF.COMPS:FHP:1,2015-09-16T05:30:00Z,28.1530,-82.8010,-1.0,38.74,2 
COMPS,ioos:station:USF.COMPS:FHP:1,2015-09-16T05:36:00Z,28.1530,-82.8010,-1.0,38.15,2 
COMPS,ioos:station:USF.COMPS:FHP:1,2015-09-16T05:42:00Z,28.1530,-82.8010,-1.0,38.29,2 
COMPS,ioos:station:USF.COMPS:FHP:1,2015-09-16T05:48:00Z,28.1530,-82.8010,-1.0,37.97,2 
COMPS,ioos:station:USF.COMPS:FHP:1,2015-09-16T05:54:00Z,28.1530,-82.8010,-1.0,37.97,2 
COMPS,ioos:station:USF.COMPS:FHP:1,2015-09-16T06:00:00Z,28.1530,-82.8010,-1.0,37.87,2 
COMPS,ioos:station:USF.COMPS:FHP:1,2015-09-16T06:06:00Z,28.1530,-82.8010,-1.0,37.74,2 
COMPS,ioos:station:USF.COMPS:FHP:1,2015-09-16T06:12:00Z,28.1530,-82.8010,-1.0,37.09,2 
COMPS,ioos:station:USF.COMPS:FHP:1,2015-09-16T06:18:00Z,28.1530,-82.8010,-1.0,35.9,2 
COMPS,ioos:station:USF.COMPS:FHP:1,2015-09-16T06:24:00Z,28.1530,-82.8010,-1.0,35.63,2 
COMPS,ioos:station:USF.COMPS:FHP:1,2015-09-16T06:30:00Z,28.1530,-82.8010,-1.0,36.17,2 
COMPS,ioos:station:USF.COMPS:FHP:1,2015-09-16T06:36:00Z,28.1530,-82.8010,-1.0,36.76,2 
COMPS,ioos:station:USF.COMPS:FHP:1,2015-09-16T06:42:00Z,28.1530,-82.8010,-1.0,36.73,2 
COMPS,ioos:station:USF.COMPS:FHP:1,2015-09-16T06:48:00Z,28.1530,-82.8010,-1.0,36.46,2 
COMPS,ioos:station:USF.COMPS:FHP:1,2015-09-16T06:54:00Z,28.1530,-82.8010,-1.0,36.5,2 
COMPS,ioos:station:USF.COMPS:FHP:1,2015-09-16T07:00:00Z,28.1530,-82.8010,-1.0,36.44,2 
COMPS,ioos:station:USF.COMPS:FHP:1,2015-09-16T07:06:00Z,28.1530,-82.8010,-1.0,35.31,2 
COMPS,ioos:station:USF.COMPS:FHP:1,2015-09-16T07:12:00Z,28.1530,-82.8010,-1.0,35.56,2 
COMPS,ioos:station:USF.COMPS:FHP:1,2015-09-16T07:18:00Z,28.1530,-82.8010,-1.0,36.06,2 
COMPS,ioos:station:USF.COMPS:FHP:1,2015-09-16T07:24:00Z,28.1530,-82.8010,-1.0,35.19,2 
COMPS,ioos:station:USF.COMPS:FHP:1,2015-09-16T07:30:00Z,28.1530,-82.8010,-1.0,36.04,2 
COMPS,ioos:station:USF.COMPS:FHP:1,2015-09-16T07:36:00Z,28.1530,-82.8010,-1.0,36.73,2 
COMPS,ioos:station:USF.COMPS:FHP:1,2015-09-16T07:42:00Z,28.1530,-82.8010,-1.0,37.65,2 
COMPS,ioos:station:USF.COMPS:FHP:1,2015-09-16T07:48:00Z,28.1530,-82.8010,-1.0,37.4,2 
COMPS,ioos:station:USF.COMPS:FHP:1,2015-09-16T07:54:00Z,28.1530,-82.8010,-1.0,37.6,2 
COMPS,ioos:station:USF.COMPS:FHP:1,2015-09-16T08:00:00Z,28.1530,-82.8010,-1.0,39.24,2 
COMPS,ioos:station:USF.COMPS:FHP:1,2015-09-16T08:06:00Z,28.1530,-82.8010,-1.0,42.09,2 
COMPS,ioos:station:USF.COMPS:FHP:1,2015-09-16T15:00:00Z,28.1530,-82.8010,-1.0,44.96,2 
COMPS,ioos:station:USF.COMPS:FHP:1,2015-09-16T15:06:00Z,28.1530,-82.8010,-1.0,44.87,2 
COMPS,ioos:station:USF.COMPS:FHP:1,2015-09-16T15:24:00Z,28.1530,-82.8010,-1.0,44.8,2 
COMPS,ioos:station:USF.COMPS:FHP:1,2015-09-16T15:30:00Z,28.1530,-82.8010,-1.0,44.65,2 
COMPS,ioos:station:USF.COMPS:FHP:1,2015-09-16T15:36:00Z,28.1530,-82.8010,-1.0,44.55,2 
COMPS,ioos:station:USF.COMPS:FHP:1,2015-09-16T16:06:00Z,28.1530,-82.8010,-1.0,42.35,2 
COMPS,ioos:station:USF.COMPS:FHP:1,2015-09-16T16:12:00Z,28.1530,-82.8010,-1.0,42.13,2 
COMPS,ioos:station:USF.COMPS:FHP:1,2015-09-16T16:18:00Z,28.1530,-82.8010,-1.0,42.18,2 
COMPS,ioos:station:USF.COMPS:FHP:1,2015-09-16T16:24:00Z,28.1530,-82.8010,-1.0,40.24,2 
COMPS,ioos:station:USF.COMPS:FHP:1,2015-09-16T16:30:00Z,28.1530,-82.8010,-1.0,38.57,2 
COMPS,ioos:station:USF.COMPS:FHP:1,2015-09-16T16:36:00Z,28.1530,-82.8010,-1.0,38.12,2 
COMPS,ioos:station:USF.COMPS:FHP:1,2015-09-16T16:42:00Z,28.1530,-82.8010,-1.0,38.32,2 
COMPS,ioos:station:USF.COMPS:FHP:1,2015-09-16T16:48:00Z,28.1530,-82.8010,-1.0,37.29,2 
COMPS,ioos:station:USF.COMPS:FHP:1,2015-09-16T16:54:00Z,28.1530,-82.8010,-1.0,35.92,2 
COMPS,ioos:station:USF.COMPS:FHP:1,2015-09-16T17:00:00Z,28.1530,-82.8010,-1.0,35.4,2 
COMPS,ioos:station:USF.COMPS:FHP:1,2015-09-16T17:06:00Z,28.1530,-82.8010,-1.0,35.11,2 
COMPS,ioos:station:USF.COMPS:FHP:1,2015-09-16T17:12:00Z,28.1530,-82.8010,-1.0,35.68,2 
COMPS,ioos:station:USF.COMPS:FHP:1,2015-09-16T17:18:00Z,28.1530,-82.8010,-1.0,36.28,2 
COMPS,ioos:station:USF.COMPS:FHP:1,2015-09-16T17:24:00Z,28.1530,-82.8010,-1.0,36.47,2 
COMPS,ioos:station:USF.COMPS:FHP:1,2015-09-16T17:30:00Z,28.1530,-82.8010,-1.0,38.01,2 
COMPS,ioos:station:USF.COMPS:FHP:1,2015-09-16T17:36:00Z,28.1530,-82.8010,-1.0,38.36,2 
COMPS,ioos:station:USF.COMPS:FHP:1,2015-09-16T17:42:00Z,28.1530,-82.8010,-1.0,37.57,2 
COMPS,ioos:station:USF.COMPS:FHP:1,2015-09-16T17:48:00Z,28.1530,-82.8010,-1.0,37.71,2 
COMPS,ioos:station:USF.COMPS:FHP:1,2015-09-16T17:54:00Z,28.1530,-82.8010,-1.0,36.22,2 
COMPS,ioos:station:USF.COMPS:FHP:1,2015-09-16T18:00:00Z,28.1530,-82.8010,-1.0,35.67,2 
COMPS,ioos:station:USF.COMPS:FHP:1,2015-09-16T18:06:00Z,28.1530,-82.8010,-1.0,35.61,2 
COMPS,ioos:station:USF.COMPS:FHP:1,2015-09-16T18:12:00Z,28.1530,-82.8010,-1.0,37.2,2 
COMPS,ioos:station:USF.COMPS:FHP:1,2015-09-16T18:18:00Z,28.1530,-82.8010,-1.0,37.52,2 
COMPS,ioos:station:USF.COMPS:FHP:1,2015-09-16T18:24:00Z,28.1530,-82.8010,-1.0,37.6,2 
COMPS,ioos:station:USF.COMPS:FHP:1,2015-09-16T18:30:00Z,28.1530,-82.8010,-1.0,38.02,2 
COMPS,ioos:station:USF.COMPS:FHP:1,2015-09-16T18:36:00Z,28.1530,-82.8010,-1.0,38.0,2 
COMPS,ioos:station:USF.COMPS:FHP:1,2015-09-16T18:42:00Z,28.1530,-82.8010,-1.0,37.71,2 
COMPS,ioos:station:USF.COMPS:FHP:1,2015-09-16T18:48:00Z,28.1530,-82.8010,-1.0,38.0,2 
COMPS,ioos:station:USF.COMPS:FHP:1,2015-09-16T18:54:00Z,28.1530,-82.8010,-1.0,38.46,2 
COMPS,ioos:station:USF.COMPS:FHP:1,2015-09-16T19:00:00Z,28.1530,-82.8010,-1.0,38.68,2 
COMPS,ioos:station:USF.COMPS:FHP:1,2015-09-16T19:06:00Z,28.1530,-82.8010,-1.0,38.0,2 
COMPS,ioos:station:USF.COMPS:FHP:1,2015-09-16T19:12:00Z,28.1530,-82.8010,-1.0,37.71,2 
COMPS,ioos:station:USF.COMPS:FHP:1,2015-09-16T19:18:00Z,28.1530,-82.8010,-1.0,36.51,2 
COMPS,ioos:station:USF.COMPS:FHP:1,2015-09-16T19:24:00Z,28.1530,-82.8010,-1.0,36.52,2 
COMPS,ioos:station:USF.COMPS:FHP:1,2015-09-16T19:30:00Z,28.1530,-82.8010,-1.0,39.66,2 
COMPS,ioos:station:USF.COMPS:FHP:1,2015-09-16T19:36:00Z,28.1530,-82.8010,-1.0,39.44,2 
COMPS,ioos:station:USF.COMPS:FHP:1,2015-09-16T19:42:00Z,28.1530,-82.8010,-1.0,38.42,2 
COMPS,ioos:station:USF.COMPS:FHP:1,2015-09-16T19:48:00Z,28.1530,-82.8010,-1.0,38.25,2 
COMPS,ioos:station:USF.COMPS:FHP:1,2015-09-16T19:54:00Z,28.1530,-82.8010,-1.0,38.21,2 
COMPS,ioos:station:USF.COMPS:FHP:1,2015-09-16T20:00:00Z,28.1530,-82.8010,-1.0,39.14,2 
COMPS,ioos:station:USF.COMPS:FHP:1,2015-09-16T20:06:00Z,28.1530,-82.8010,-1.0,38.57,2 
COMPS,ioos:station:USF.COMPS:FHP:1,2015-09-16T20:12:00Z,28.1530,-82.8010,-1.0,39.51,2 
COMPS,ioos:station:USF.COMPS:FHP:1,2015-09-16T20:18:00Z,28.1530,-82.8010,-1.0,39.64,2 
COMPS,ioos:station:USF.COMPS:FHP:1,2015-09-16T20:24:00Z,28.1530,-82.8010,-1.0,39.88,2 
COMPS,ioos:station:USF.COMPS:FHP:1,2015-09-16T20:30:00Z,28.1530,-82.8010,-1.0,40.45,2 
COMPS,ioos:station:USF.COMPS:FHP:1,2015-09-16T20:36:00Z,28.1530,-82.8010,-1.0,41.03,2 
COMPS,ioos:station:USF.COMPS:FHP:1,2015-09-16T20:42:00Z,28.1530,-82.8010,-1.0,40.46,2 
COMPS,ioos:station:USF.COMPS:FHP:1,2015-09-16T20:48:00Z,28.1530,-82.8010,-1.0,41.31,2 
COMPS,ioos:station:USF.COMPS:FHP:1,2015-09-16T20:54:00Z,28.1530,-82.8010,-1.0,44.18,2 
COMPS,ioos:station:USF.COMPS:FHP:1,2015-09-17T01:24:00Z,28.1530,-82.8010,-1.0,44.82,2 
COMPS,ioos:station:USF.COMPS:FHP:1,2015-09-17T01:30:00Z,28.1530,-82.8010,-1.0,43.62,2 
COMPS,ioos:station:USF.COMPS:FHP:1,2015-09-17T01:36:00Z,28.1530,-82.8010,-1.0,43.67,2 
COMPS,ioos:station:USF.COMPS:FHP:1,2015-09-17T01:42:00Z,28.1530,-82.8010,-1.0,44.27,2 
COMPS,ioos:station:USF.COMPS:FHP:1,2015-09-17T01:48:00Z,28.1530,-82.8010,-1.0,44.54,2 
COMPS,ioos:station:USF.COMPS:FHP:1,2015-09-17T01:54:00Z,28.1530,-82.8010,-1.0,44.24,2 
COMPS,ioos:station:USF.COMPS:FHP:1,2015-09-17T04:12:00Z,28.1530,-82.8010,-1.0,42.37,2 
COMPS,ioos:station:USF.COMPS:FHP:1,2015-09-17T04:18:00Z,28.1530,-82.8010,-1.0,39.73,2 
COMPS,ioos:station:USF.COMPS:FHP:1,2015-09-17T04:24:00Z,28.1530,-82.8010,-1.0,36.66,2 
COMPS,ioos:station:USF.COMPS:FHP:1,2015-09-17T04:30:00Z,28.1530,-82.8010,-1.0,36.09,2 
COMPS,ioos:station:USF.COMPS:FHP:1,2015-09-17T04:36:00Z,28.1530,-82.8010,-1.0,35.72,2 
COMPS,ioos:station:USF.COMPS:FHP:1,2015-09-17T04:42:00Z,28.1530,-82.8010,-1.0,35.3,2 
COMPS,ioos:station:USF.COMPS:FHP:1,2015-09-17T04:48:00Z,28.1530,-82.8010,-1.0,35.23,2 
COMPS,ioos:station:USF.COMPS:FHP:1,2015-09-17T04:54:00Z,28.1530,-82.8010,-1.0,34.87,2 
COMPS,ioos:station:USF.COMPS:FHP:1,2015-09-17T05:00:00Z,28.1530,-82.8010,-1.0,34.03,2 
COMPS,ioos:station:USF.COMPS:FHP:1,2015-09-17T05:06:00Z,28.1530,-82.8010,-1.0,32.92,2 
COMPS,ioos:station:USF.COMPS:FHP:1,2015-09-17T05:12:00Z,28.1530,-82.8010,-1.0,33.09,2 
COMPS,ioos:station:USF.COMPS:FHP:1,2015-09-17T05:18:00Z,28.1530,-82.8010,-1.0,34.14,2 
COMPS,ioos:station:USF.COMPS:FHP:1,2015-09-17T05:24:00Z,28.1530,-82.8010,-1.0,34.08,2 
COMPS,ioos:station:USF.COMPS:FHP:1,2015-09-17T05:30:00Z,28.1530,-82.8010,-1.0,33.76,2 
COMPS,ioos:station:USF.COMPS:FHP:1,2015-09-17T05:36:00Z,28.1530,-82.8010,-1.0,33.48,2 
COMPS,ioos:station:USF.COMPS:FHP:1,2015-09-17T05:42:00Z,28.1530,-82.8010,-1.0,33.8,2 
COMPS,ioos:station:USF.COMPS:FHP:1,2015-09-17T05:48:00Z,28.1530,-82.8010,-1.0,34.95,2 
COMPS,ioos:station:USF.COMPS:FHP:1,2015-09-17T05:54:00Z,28.1530,-82.8010,-1.0,37.09,2 
COMPS,ioos:station:USF.COMPS:FHP:1,2015-09-17T06:00:00Z,28.1530,-82.8010,-1.0,35.85,2 
COMPS,ioos:station:USF.COMPS:FHP:1,2015-09-17T06:06:00Z,28.1530,-82.8010,-1.0,35.51,2 
COMPS,ioos:station:USF.COMPS:FHP:1,2015-09-17T06:12:00Z,28.1530,-82.8010,-1.0,35.35,2 
COMPS,ioos:station:USF.COMPS:FHP:1,2015-09-17T06:18:00Z,28.1530,-82.8010,-1.0,35.06,2 
COMPS,ioos:station:USF.COMPS:FHP:1,2015-09-17T06:24:00Z,28.1530,-82.8010,-1.0,35.05,2 
COMPS,ioos:station:USF.COMPS:FHP:1,2015-09-17T06:30:00Z,28.1530,-82.8010,-1.0,34.08,2 
COMPS,ioos:station:USF.COMPS:FHP:1,2015-09-17T06:36:00Z,28.1530,-82.8010,-1.0,33.95,2 
COMPS,ioos:station:USF.COMPS:FHP:1,2015-09-17T06:42:00Z,28.1530,-82.8010,-1.0,33.98,2 
COMPS,ioos:station:USF.COMPS:FHP:1,2015-09-17T06:48:00Z,28.1530,-82.8010,-1.0,34.77,2 
COMPS,ioos:station:USF.COMPS:FHP:1,2015-09-17T06:54:00Z,28.1530,-82.8010,-1.0,35.41,2 
COMPS,ioos:station:USF.COMPS:FHP:1,2015-09-17T07:00:00Z,28.1530,-82.8010,-1.0,35.27,2 
COMPS,ioos:station:USF.COMPS:FHP:1,2015-09-17T07:06:00Z,28.1530,-82.8010,-1.0,34.64,2 
COMPS,ioos:station:USF.COMPS:FHP:1,2015-09-17T07:12:00Z,28.1530,-82.8010,-1.0,34.14,2 
COMPS,ioos:station:USF.COMPS:FHP:1,2015-09-17T07:18:00Z,28.1530,-82.8010,-1.0,33.52,2 
COMPS,ioos:station:USF.COMPS:FHP:1,2015-09-17T07:24:00Z,28.1530,-82.8010,-1.0,34.08,2 
COMPS,ioos:station:USF.COMPS:FHP:1,2015-09-17T07:30:00Z,28.1530,-82.8010,-1.0,34.21,2 
COMPS,ioos:station:USF.COMPS:FHP:1,2015-09-17T07:36:00Z,28.1530,-82.8010,-1.0,34.39,2 
COMPS,ioos:station:USF.COMPS:FHP:1,2015-09-17T07:42:00Z,28.1530,-82.8010,-1.0,35.15,2 
COMPS,ioos:station:USF.COMPS:FHP:1,2015-09-17T07:48:00Z,28.1530,-82.8010,-1.0,34.4,2 
COMPS,ioos:station:USF.COMPS:FHP:1,2015-09-17T07:54:00Z,28.1530,-82.8010,-1.0,34.29,2 
COMPS,ioos:station:USF.COMPS:FHP:1,2015-09-17T08:00:00Z,28.1530,-82.8010,-1.0,34.42,2 
COMPS,ioos:station:USF.COMPS:FHP:1,2015-09-17T08:06:00Z,28.1530,-82.8010,-1.0,34.67,2 
COMPS,ioos:station:USF.COMPS:FHP:1,2015-09-17T08:12:00Z,28.1530,-82.8010,-1.0,35.05,2 
COMPS,ioos:station:USF.COMPS:FHP:1,2015-09-17T08:18:00Z,28.1530,-82.8010,-1.0,35.46,2 
COMPS,ioos:station:USF.COMPS:FHP:1,2015-09-17T08:24:00Z,28.1530,-82.8010,-1.0,36.49,2 
COMPS,ioos:station:USF.COMPS:FHP:1,2015-09-17T08:30:00Z,28.1530,-82.8010,-1.0,36.06,2 
COMPS,ioos:station:USF.COMPS:FHP:1,2015-09-17T08:36:00Z,28.1530,-82.8010,-1.0,35.45,2 
COMPS,ioos:station:USF.COMPS:FHP:1,2015-09-17T08:42:00Z,28.1530,-82.8010,-1.0,36.56,2 
COMPS,ioos:station:USF.COMPS:FHP:1,2015-09-17T08:48:00Z,28.1530,-82.8010,-1.0,36.51,2 
COMPS,ioos:station:USF.COMPS:FHP:1,2015-09-17T08:54:00Z,28.1530,-82.8010,-1.0,36.89,2 
COMPS,ioos:station:USF.COMPS:FHP:1,2015-09-17T09:00:00Z,28.1530,-82.8010,-1.0,40.0,2 
COMPS,ioos:station:USF.COMPS:FHP:1,2015-09-17T09:06:00Z,28.1530,-82.8010,-1.0,42.98,2 
COMPS,ioos:station:USF.COMPS:FHP:1,2015-09-17T09:12:00Z,28.1530,-82.8010,-1.0,44.62,2 
COMPS,ioos:station:USF.COMPS:FHP:1,2015-09-17T13:36:00Z,28.1530,-82.8010,-1.0,45.0,2 
COMPS,ioos:station:USF.COMPS:FHP:1,2015-09-17T13:42:00Z,28.1530,-82.8010,-1.0,44.75,2 
COMPS,ioos:station:USF.COMPS:FHP:1,2015-09-17T13:54:00Z,28.1530,-82.8010,-1.0,44.44,2 
COMPS,ioos:station:USF.COMPS:FHP:1,2015-09-17T14:00:00Z,28.1530,-82.8010,-1.0,44.67,2 
COMPS,ioos:station:USF.COMPS:FHP:1,2015-09-17T14:06:00Z,28.1530,-82.8010,-1.0,44.82,2 
COMPS,ioos:station:USF.COMPS:FHP:1,2015-09-17T14:12:00Z,28.1530,-82.8010,-1.0,44.71,2 
COMPS,ioos:station:USF.COMPS:FHP:1,2015-09-17T14:18:00Z,28.1530,-82.8010,-1.0,44.95,2 
COMPS,ioos:station:USF.COMPS:FHP:1,2015-09-17T14:24:00Z,28.1530,-82.8010,-1.0,44.76,2 
COMPS,ioos:station:USF.COMPS:FHP:1,2015-09-17T14:30:00Z,28.1530,-82.8010,-1.0,44.99,2 
COMPS,ioos:station:USF.COMPS:FHP:1,2015-09-17T14:36:00Z,28.1530,-82.8010,-1.0,44.62,2 
COMPS,ioos:station:USF.COMPS:FHP:1,2015-09-17T16:00:00Z,28.1530,-82.8010,-1.0,44.63,2 
COMPS,ioos:station:USF.COMPS:FHP:1,2015-09-17T17:30:00Z,28.1530,-82.8010,-1.0,43.78,2 
COMPS,ioos:station:USF.COMPS:FHP:1,2015-09-17T17:36:00Z,28.1530,-82.8010,-1.0,43.98,2 
COMPS,ioos:station:USF.COMPS:FHP:1,2015-09-17T17:42:00Z,28.1530,-82.8010,-1.0,42.77,2 
COMPS,ioos:station:USF.COMPS:FHP:1,2015-09-17T17:48:00Z,28.1530,-82.8010,-1.0,41.71,2 
COMPS,ioos:station:USF.COMPS:FHP:1,2015-09-17T17:54:00Z,28.1530,-82.8010,-1.0,40.53,2 
COMPS,ioos:station:USF.COMPS:FHP:1,2015-09-17T18:00:00Z,28.1530,-82.8010,-1.0,38.69,2 
COMPS,ioos:station:USF.COMPS:FHP:1,2015-09-17T18:06:00Z,28.1530,-82.8010,-1.0,38.27,2 
COMPS,ioos:station:USF.COMPS:FHP:1,2015-09-17T18:12:00Z,28.1530,-82.8010,-1.0,36.79,2 
COMPS,ioos:station:USF.COMPS:FHP:1,2015-09-17T18:18:00Z,28.1530,-82.8010,-1.0,35.76,2 
COMPS,ioos:station:USF.COMPS:FHP:1,2015-09-17T18:24:00Z,28.1530,-82.8010,-1.0,35.5,2 
COMPS,ioos:station:USF.COMPS:FHP:1,2015-09-17T18:30:00Z,28.1530,-82.8010,-1.0,35.22,2 
COMPS,ioos:station:USF.COMPS:FHP:1,2015-09-17T18:36:00Z,28.1530,-82.8010,-1.0,36.11,2 
COMPS,ioos:station:USF.COMPS:FHP:1,2015-09-17T18:42:00Z,28.1530,-82.8010,-1.0,34.98,2 
COMPS,ioos:station:USF.COMPS:FHP:1,2015-09-17T18:48:00Z,28.1530,-82.8010,-1.0,35.51,2 
COMPS,ioos:station:USF.COMPS:FHP:1,2015-09-17T18:54:00Z,28.1530,-82.8010,-1.0,34.84,2 
COMPS,ioos:station:USF.COMPS:FHP:1,2015-09-17T19:00:00Z,28.1530,-82.8010,-1.0,34.62,2 
COMPS,ioos:station:USF.COMPS:FHP:1,2015-09-17T19:06:00Z,28.1530,-82.8010,-1.0,35.34,2 
COMPS,ioos:station:USF.COMPS:FHP:1,2015-09-17T19:12:00Z,28.1530,-82.8010,-1.0,34.97,2 
COMPS,ioos:station:USF.COMPS:FHP:1,2015-09-17T19:18:00Z,28.1530,-82.8010,-1.0,36.84,2 
COMPS,ioos:station:USF.COMPS:FHP:1,2015-09-17T19:24:00Z,28.1530,-82.8010,-1.0,35.85,2 
COMPS,ioos:station:USF.COMPS:FHP:1,2015-09-17T19:30:00Z,28.1530,-82.8010,-1.0,36.47,2 
COMPS,ioos:station:USF.COMPS:FHP:1,2015-09-17T19:36:00Z,28.1530,-82.8010,-1.0,37.21,2 
COMPS,ioos:station:USF.COMPS:FHP:1,2015-09-17T19:42:00Z,28.1530,-82.8010,-1.0,39.48,2 
COMPS,ioos:station:USF.COMPS:FHP:1,2015-09-17T19:48:00Z,28.1530,-82.8010,-1.0,36.97,2 
COMPS,ioos:station:USF.COMPS:FHP:1,2015-09-17T19:54:00Z,28.1530,-82.8010,-1.0,35.53,2 
COMPS,ioos:station:USF.COMPS:FHP:1,2015-09-17T20:00:00Z,28.1530,-82.8010,-1.0,37.12,2 
COMPS,ioos:station:USF.COMPS:FHP:1,2015-09-17T20:06:00Z,28.1530,-82.8010,-1.0,35.95,2 
COMPS,ioos:station:USF.COMPS:FHP:1,2015-09-17T20:12:00Z,28.1530,-82.8010,-1.0,36.44,2 
COMPS,ioos:station:USF.COMPS:FHP:1,2015-09-17T20:18:00Z,28.1530,-82.8010,-1.0,36.16,2 
COMPS,ioos:station:USF.COMPS:FHP:1,2015-09-17T20:24:00Z,28.1530,-82.8010,-1.0,36.33,2 
COMPS,ioos:station:USF.COMPS:FHP:1,2015-09-17T20:30:00Z,28.1530,-82.8010,-1.0,36.29,2 
COMPS,ioos:station:USF.COMPS:FHP:1,2015-09-17T20:36:00Z,28.1530,-82.8010,-1.0,36.29,2 
COMPS,ioos:station:USF.COMPS:FHP:1,2015-09-17T20:42:00Z,28.1530,-82.8010,-1.0,35.21,2 
COMPS,ioos:station:USF.COMPS:FHP:1,2015-09-17T20:48:00Z,28.1530,-82.8010,-1.0,35.87,2 
COMPS,ioos:station:USF.COMPS:FHP:1,2015-09-17T20:54:00Z,28.1530,-82.8010,-1.0,34.66,2 